CST,Max TemperatureF,Mean TemperatureF,Min TemperatureF,Max Dew PointF,MeanDew PointF,Min DewpointF,Max Humidity, Mean Humidity, Min Humidity, Max Sea Level PressureIn, Mean Sea Level PressureIn, Min Sea Level PressureIn, Max VisibilityMiles, Mean VisibilityMiles, Min VisibilityMiles, Max Wind SpeedMPH, Mean Wind SpeedMPH, Max Gust SpeedMPH,PrecipitationIn, CloudCover, Events, WindDirDegrees
2012-11-1,88,72,59,70,63,57,100,85,37,30.10,30.05,29.99,10,5,0,9,2,,0.01,3,Fog,209
2012-11-2,87,68,63,69,64,62,100,95,87,30.07,30.02,30.01,10,3,0,10,2,,0.00,0,Fog,197
2012-11-3,73,70,66,67,65,64,96,90,71,30.10,30.06,30.03,10,10,10,9,4,,0.00,1,,167
2012-11-4,,,,,,,,,,,,,,,,,,,0.00,,,-1
2012-11-5,87,74,62,67,63,54,100,73,43,30.09,30.02,29.94,10,8,0,12,3,16,0.06,3,Fog-Thunderstorm,317
2012-11-6,75,64,52,54,46,40,86,57,29,30.18,30.12,30.06,10,10,10,9,6,18,0.00,0,,354
2012-11-7,,,,,,,,,,,,,,,,,,,0.00,,,-1
2012-11-8,80,68,55,58,55,54,93,73,43,30.14,30.12,30.10,10,10,10,15,3,,0.00,0,,150
2012-11-9,77,72,64,62,62,60,87,74,56,30.12,30.10,30.06,10,10,10,15,11,,0.00,1,,143
2012-11-10,75,74,73,67,66,65,79,75,71,30.02,30.02,30.02,10,10,10,14,11,,0.00,5,,147
2012-11-11,,,,,,,,,,,,,,,,,,,,,,
2012-11-12,62,59,57,53,48,39,81,70,43,30.40,30.34,30.25,10,10,10,16,13,24,0.00,6,,17
2012-11-13,60,56,51,37,29,25,59,37,27,30.50,30.41,30.35,10,10,10,18,12,24,0.00,1,,51
2012-11-14,64,58,52,38,33,31,59,42,28,30.44,30.38,30.30,10,10,10,12,7,,0.00,6,,34
2012-11-15,68,60,51,43,37,32,71,44,26,30.35,30.29,30.24,10,10,10,8,4,,0.00,3,,48
2012-11-16,68,62,54,40,36,33,49,37,27,30.39,30.33,30.29,10,10,10,14,10,21,0.00,0,,22
2012-11-17,60,54,54,40,39,39,59,52,46,30.40,30.40,30.40,10,10,10,7,5,,0.00,0,,70
2012-11-18,66,54,41,49,45,39,96,73,37,30.35,30.31,30.26,10,9,6,7,3,,0.00,0,,103
2012-11-19,75,62,48,56,51,42,100,80,31,30.28,30.21,30.18,10,7,0,8,2,,0.00,0,Fog,136
2012-11-20,79,64,51,56,53,51,100,94,45,30.24,30.19,30.16,10,2,0,4,0,,0.00,2,Fog,-1
2012-11-21,82,70,59,61,56,47,96,58,29,30.30,30.25,30.18,10,9,4,7,4,,0.00,0,,43
2012-11-22,78,70,62,60,56,52,93,68,42,30.18,30.16,30.12,10,9,7,13,9,21,0.00,0,,149
2012-11-23,63,61,59,59,54,46,96,81,54,30.36,30.24,30.17,10,7,4,13,3,,0.00,5,,55
2012-11-24,62,53,43,46,34,28,86,54,33,30.41,30.32,30.21,10,10,10,15,10,26,0.00,2,,38
2012-11-25,75,58,41,57,49,38,93,66,45,30.19,30.12,30.01,10,10,10,12,3,20,0.00,1,,166
2012-11-26,84,72,60,68,65,61,100,85,48,30.10,30.02,29.96,10,7,0,16,5,24,0.00,4,Fog,219
2012-11-27,69,61,53,61,50,45,75,69,60,30.35,30.21,30.08,10,10,10,18,11,25,0.00,6,,349
2012-11-28,43,41,39,41,40,38,97,94,89,30.47,30.41,30.37,10,8,5,6,3,,0.01,0,,3
2012-11-29,71,55,39,59,48,39,100,89,59,30.32,30.27,30.19,10,6,2,10,4,,0.00,4,,60
2012-11-30,77,70,62,67,64,61,94,83,64,30.21,30.16,30.11,10,9,3,13,6,20,0.18,6,Rain,130